Weather reports worldwide

Advertisment
South Newington, United Kingdom (99166): temperature & dewpoint: 18.05.2017 20:00:00 - 24.05.2017 20:00:00 (BST)South Newington, United Kingdom (99166): temperature 5cm: 18.05.2017 20:00:00 - 24.05.2017 20:00:00 (BST)South Newington, United Kingdom (99166): temperature -20cm & temperature -100cm: 18.05.2017 20:00:00 - 24.05.2017 20:00:00 (BST)South Newington, United Kingdom (99166): wind speed: 18.05.2017 20:00:00 - 24.05.2017 20:00:00 (BST)South Newington, United Kingdom (99166): wind direction: 18.05.2017 20:00:00 - 24.05.2017 20:00:00 (BST)South Newington, United Kingdom (99166): visibility: 18.05.2017 20:00:00 - 24.05.2017 20:00:00 (BST)South Newington, United Kingdom (99166): precipitation: 18.05.2017 20:00:00 - 24.05.2017 20:00:00 (BST)
Date & Time tt [°C] td [°C] tt 5cm [°C] tt -20cm [°C] tt -100cm [°C] ff [km/h] ff [kn] dd vv [km] rr [mm]
24.05.2017 20:00:00 20,0 16,5 - - - - - - - 0,0
24.05.2017 19:00:00 21,9 16,2 - - - - - - - 0,0
24.05.2017 18:00:00 21,8 16,2 - - - - - - - 0,0
24.05.2017 17:00:00 22,8 13,7 - - - - - - - 0,0
24.05.2017 16:00:00 23,5 13,2 - - - - - - - 0,0
24.05.2017 15:00:00 22,9 13,9 - - - - - - - 0,0
24.05.2017 14:00:00 23,0 15,5 - - - - - - - 0,0
24.05.2017 13:00:00 21,8 15,7 - - - - - - - 0,0
24.05.2017 12:00:00 20,6 14,3 - - - - - - - 0,0
24.05.2017 11:00:00 19,9 14,6 - - - - - - - 0,0
24.05.2017 10:00:00 19,2 14,4 19,2 15,0 11,9 - - N 6 0,0
24.05.2017 09:00:00 18,4 14,1 - - - - - - - 0,0
24.05.2017 08:00:00 16,3 14,1 - - - - - - - 0,0
24.05.2017 07:00:00 12,7 12,7 - - - - - - - 0,0
24.05.2017 06:00:00 8,7 8,5 - - - - - - - 0,0
24.05.2017 05:00:00 9,1 8,8 - - - - - - - 0,0
24.05.2017 04:00:00 9,4 9,2 - - - - - - - 0,0
24.05.2017 03:00:00 9,8 9,4 - - - - - - - 0,0
24.05.2017 02:00:00 10,6 10,2 - - - - - - - 0,0
24.05.2017 01:00:00 12,0 11,6 - - - - - - - 0,0
24.05.2017 00:00:00 12,0 11,4 - - - - - - - 0,0
23.05.2017 23:00:00 12,3 11,5 - - - - - - - 0,0
23.05.2017 22:00:00 14,0 12,7 - - - - - - - 0,0
23.05.2017 21:00:00 16,0 13,3 - - - - - - - 0,0
23.05.2017 20:00:00 19,3 13,0 - - - - - - - 0,0
23.05.2017 19:00:00 20,2 12,9 - - - - - - - 0,0
23.05.2017 18:00:00 21,1 13,1 - - - - - - - 0,0
23.05.2017 17:00:00 20,8 12,1 - - - - - - - 0,0
23.05.2017 16:00:00 20,5 12,7 - - - - - - - 0,0
23.05.2017 15:00:00 19,8 14,6 - - - - - - - 0,0
23.05.2017 14:00:00 17,2 14,4 - - - - - - - 0,0
23.05.2017 13:00:00 17,0 13,1 - - - - - - - 0,0
23.05.2017 12:00:00 16,9 12,9 - - - - - - - 0,0
23.05.2017 11:00:00 16,5 12,2 - - - - - - - 0,0
23.05.2017 10:00:00 16,8 11,9 16,8 14,7 11,7 32 18 N 6 0,0
23.05.2017 09:00:00 15,8 11,1 - - - - - - - 0,0
23.05.2017 08:00:00 14,3 10,6 - - - - - - - 0,0
23.05.2017 07:00:00 13,2 9,8 - - - - - - - 0,0
23.05.2017 06:00:00 11,9 9,3 - - - - - - - 0,0
23.05.2017 05:00:00 11,1 9,0 - - - - - - - 0,0
23.05.2017 04:00:00 11,2 9,0 - - - - - - - 0,0
23.05.2017 03:00:00 10,6 9,4 - - - - - - - 0,0
23.05.2017 02:00:00 10,2 8,3 - - - - - - - 0,0
23.05.2017 01:00:00 11,7 9,1 - - - - - - - 0,0
23.05.2017 00:00:00 13,5 10,8 - - - - - - - 0,0
22.05.2017 23:00:00 14,5 11,7 - - - - - - - 0,0
22.05.2017 22:00:00 14,8 11,7 - - - - - - - 0,0
22.05.2017 21:00:00 17,7 11,0 - - - - - - - 0,0
22.05.2017 20:00:00 19,3 11,0 - - - - - - - 0,0
22.05.2017 19:00:00 20,9 9,1 - - - - - - - 0,0
22.05.2017 18:00:00 23,2 9,7 - - - - - - - 0,0
22.05.2017 17:00:00 23,0 11,2 - - - - - - - 0,0
22.05.2017 16:00:00 21,7 9,6 - - - - - - - 0,0
22.05.2017 15:00:00 22,0 10,8 - - - - - - - 0,0
22.05.2017 14:00:00 21,2 10,6 - - - - - - - 0,0
22.05.2017 13:00:00 21,0 10,8 - - - - - - - 0,0
22.05.2017 12:00:00 19,8 8,8 - - - - - - - 0,0
22.05.2017 11:00:00 19,0 10,8 - - - - - - - 0,0
22.05.2017 10:00:00 16,1 10,9 - 14,0 11,7 - - - 10 0,0
22.05.2017 09:00:00 13,9 11,3 - - - - - - - 0,0
22.05.2017 08:00:00 11,6 11,5 - - - - - - - 0,0
22.05.2017 07:00:00 8,0 7,9 - - - - - - - 0,0
22.05.2017 06:00:00 6,0 5,9 - - - - - - - 0,0
22.05.2017 05:00:00 5,0 4,7 - - - - - - - 0,0
22.05.2017 04:00:00 5,3 5,0 - - - - - - - 0,0
22.05.2017 03:00:00 5,3 4,9 - - - - - - - 0,0
22.05.2017 02:00:00 5,5 5,0 - - - - - - - 0,0
22.05.2017 01:00:00 6,2 5,6 - - - - - - - 0,0
22.05.2017 00:00:00 6,8 6,0 - - - - - - - 0,0
21.05.2017 23:00:00 7,8 6,7 - - - - - - - 0,0
21.05.2017 22:00:00 9,7 7,1 - - - - - - - 0,0
21.05.2017 21:00:00 13,4 7,3 - - - - - - - 0,0
21.05.2017 20:00:00 15,9 7,7 - - - - - - - 0,0
21.05.2017 19:00:00 16,6 8,2 - - - - - - - 0,0
21.05.2017 18:00:00 16,8 8,1 - - - - - - - 0,0
21.05.2017 17:00:00 17,8 8,1 - - - - - - - 0,0
21.05.2017 16:00:00 16,9 7,6 - - - - - - - 0,0
21.05.2017 15:00:00 16,8 8,6 - - - - - - - 0,0
21.05.2017 14:00:00 15,6 7,6 - - - - - - - 0,0
21.05.2017 13:00:00 16,3 8,7 - - - - - - - 0,0
21.05.2017 12:00:00 14,2 7,5 - - - - - - - 0,0
21.05.2017 11:00:00 14,6 8,0 - - - - - - - 0,0
21.05.2017 10:00:00 14,1 9,0 14,3 13,7 11,7 - - N 1,2 0,0
21.05.2017 09:00:00 11,5 8,9 - - - - - - - 0,0
21.05.2017 08:00:00 8,8 8,5 - - - - - - - 0,0
21.05.2017 07:00:00 8,0 7,8 - - - - - - - 0,0
21.05.2017 06:00:00 5,0 4,7 - - - - - - - 0,0
21.05.2017 05:00:00 3,9 3,4 - - - - - - - 0,0
21.05.2017 04:00:00 5,0 4,4 - - - - - - - 0,0
21.05.2017 03:00:00 6,7 6,0 - - - - - - - 0,0
21.05.2017 02:00:00 8,4 7,6 - - - - - - - -
21.05.2017 01:00:00 8,8 7,6 - - - - - - - 0,0
21.05.2017 00:00:00 9,3 8,0 - - - - - - - 0,0
20.05.2017 23:00:00 9,4 8,1 - - - - - - - 0,0
20.05.2017 22:00:00 10,4 8,6 - - - - - - - 0,0
20.05.2017 21:00:00 10,8 8,2 - - - - - - - 0,0
20.05.2017 20:00:00 12,0 8,7 - - - - - - - 0,0
20.05.2017 19:00:00 12,4 8,5 - - - - - - - 0,0
20.05.2017 18:00:00 12,9 9,1 - - - - - - - 0,0
20.05.2017 17:00:00 13,0 8,2 - - - - - - - 0,0
20.05.2017 16:00:00 13,6 9,7 - - - - - - - 1,0
20.05.2017 15:00:00 11,7 8,4 - - - - - - - 0,4
20.05.2017 14:00:00 14,0 8,3 - - - - - - - 0,0
20.05.2017 13:00:00 13,6 8,1 - - - - - - - 0,0
20.05.2017 12:00:00 12,8 6,7 - - - - - - - 0,0
20.05.2017 11:00:00 13,2 7,4 - - - - - - - 0,0
20.05.2017 10:00:00 12,4 8,6 12,4 13,9 11,7 133 72 N 2,4 0,0
20.05.2017 09:00:00 11,1 8,3 - - - - - - - 0,0
20.05.2017 08:00:00 9,3 9,0 - - - - - - - 0,0
20.05.2017 07:00:00 6,5 6,5 - - - - - - - 0,0
20.05.2017 06:00:00 1,7 1,5 - - - - - - - 0,0
20.05.2017 05:00:00 2,3 2,1 - - - - - - - 0,0
20.05.2017 04:00:00 3,0 2,7 - - - - - - - 0,0
20.05.2017 03:00:00 3,9 3,6 - - - - - - - 0,0
20.05.2017 02:00:00 4,5 4,1 - - - - - - - 0,0
20.05.2017 01:00:00 5,6 5,0 - - - - - - - 0,0
20.05.2017 00:00:00 7,0 6,3 - - - - - - - 0,0
19.05.2017 23:00:00 8,3 7,6 - - - - - - - 0,0
19.05.2017 22:00:00 8,4 7,7 - - - - - - - 0,0
19.05.2017 21:00:00 9,0 8,2 - - - - - - - 0,6
19.05.2017 20:00:00 9,4 8,2 - - - - - - - 0,4
19.05.2017 19:00:00 10,7 9,7 - - - - - - - 0,2
19.05.2017 18:00:00 10,6 8,5 - - - - - - - 2,0
19.05.2017 17:00:00 11,9 8,8 - - - - - - - 2,0
19.05.2017 16:00:00 11,7 7,6 - - - - - - - 0,0
19.05.2017 15:00:00 13,7 8,7 - - - - - - - -
19.05.2017 14:00:00 11,6 8,0 - - - - - - - 0,4
19.05.2017 13:00:00 12,6 8,0 - - - - - - - 0,0
19.05.2017 12:00:00 11,6 9,2 - - - - - - - 0,2
19.05.2017 11:00:00 10,4 8,9 - - - - - - - 0,2
19.05.2017 10:00:00 10,3 9,1 10,3 14,0 11,5 5 3 N 45 0,4
19.05.2017 09:00:00 9,9 9,2 - - - - - - - 0,0
19.05.2017 08:00:00 9,3 8,9 - - - - - - - 0,0
19.05.2017 07:00:00 9,2 8,9 - - - - - - - 0,0
19.05.2017 06:00:00 8,9 8,6 - - - - - - - 0,4
19.05.2017 05:00:00 8,8 8,4 - - - - - - - 0,2
19.05.2017 04:00:00 8,8 8,4 - - - - - - - 0,2
19.05.2017 03:00:00 8,8 8,5 - - - - - - - 0,0
19.05.2017 02:00:00 8,9 8,5 - - - - - - - 0,2
19.05.2017 01:00:00 9,1 8,7 - - - - - - - 0,2
19.05.2017 00:00:00 9,2 8,7 - - - - - - - 0,2
18.05.2017 23:00:00 9,5 8,9 - - - - - - - 0,0
18.05.2017 22:00:00 9,7 8,9 - - - - - - - 0,2
18.05.2017 21:00:00 9,9 8,9 - - - - - - - 0,0
18.05.2017 20:00:00 10,4 9,3 - - - - - - - 1,2

tt = temperature
td = dewpoint
tt 5cm = temperature 5cm
tt -20cm = temperature -20cm
tt -100cm = temperature -100cm
ff = wind speed
dd = wind direction
vv = visibility
rr = precipitation

Next stations